Weather observations for the past three days for
Modesto City-County Airport - Harry Sham Field
Imperial (Metric)
Date Time (pdt) Wind (mph) Vis. (mi.) Weather Sky Cond. Temperature (ºF) Relative Humidity Wind Chill (°F) Heat Index (°F) Pressure Precipitation (in)
Air Dwpt 6 hour altimeter (in) sea level (mb) 1 hr 3 hr 6 hr
Max. Min.
16 07:53 NW 13 10.00 Fair CLR 64.9 53.1 66% 29.97 1014.7
16 06:53 NW 10 10.00 Fair CLR 63 53.1 70% 29.95 1014.1
16 05:53 N 7 10.00 Fair CLR 62.1 53.1 73% 29.94 1013.7
16 04:53 N 10 10.00 Fair CLR 63 53.1 73 63 70% 29.92 1013.1
16 03:53 N 9 10.00 Fair CLR 64 53.1 68% 29.91 1012.7
16 02:53 N 10 10.00 Fair CLR 64.9 54 68% 29.91 1012.8
16 01:53 N 10 10.00 Fair CLR 66 53.1 63% 29.91 1012.5
16 00:53 N 9 10.00 Fair CLR 66.9 53.1 61% 29.91 1012.8
15 23:53 N 13 10.00 Fair CLR 70 54 57% 29.91 1012.6
15 22:53 N 10 10.00 Fair CLR 73 55 93 73 53% 29.9 1012.3
15 21:53 NW 13 10.00 Fair CLR 75 55 50% 78 29.89 1012.1
15 20:53 NW 12 10.00 Fair CLR 80.1 57 45% 80 29.88 1011.6
15 19:53 NW 14 10.00 Fair CLR 84 57.9 41% 83 29.87 1011.3
15 18:53 NW 14 10.00 Fair CLR 89.1 57 34% 88 29.86 1011.1
15 17:53 NW 12 10.00 Fair CLR 91.9 57 31% 91 29.87 1011.4
15 16:53 NW 12 10.00 Fair CLR 93 57 93.9 79 30% 92 29.88 1011.8
15 15:53 N 9 G 17 10.00 Fair CLR 91.9 57 31% 91 29.9 1012.2
15 14:53 N 9 10.00 Fair CLR 91.9 57.9 32% 91 29.92 1012.9
15 13:53 NW 12 10.00 Fair CLR 89.1 57.9 35% 88 29.94 1013.6
15 12:53 NW 9 10.00 Fair CLR 87.1 57 36% 86 29.96 1014.5
15 11:53 NW 8 10.00 Fair CLR 82.9 57 41% 82 29.98 1015.0
15 10:53 NW 8 10.00 Fair CLR 79 55.9 79 68 45% 80 30 1015.6
15 09:53 N 7 10.00 Fair CLR 75 55 50% 78 30 1015.7
15 08:53 NW 10 10.00 Fair CLR 71.1 54 55% 30.01 1016.2
15 07:53 N 12 10.00 Fair CLR 70 52 53% 30 1015.8
15 05:53 N 7 10.00 Fair CLR 69.1 53.1 57% 29.97 1014.7
15 04:53 N 8 10.00 Fair CLR 69.1 54 79 69.1 59% 29.96 1014.3
15 03:53 N 7 10.00 Fair CLR 69.1 54 59% 29.94 1013.7
15 02:53 N 8 10.00 Fair CLR 69.1 54 59% 29.93 1013.5
15 01:53 N 8 10.00 Fair CLR 71.1 54 55% 29.94 1013.6
15 00:53 N 9 10.00 Fair CLR 73 53.1 50% 29.93 1013.3
14 23:53 N 7 10.00 Fair CLR 75.9 54 47% 78 29.93 1013.4
14 22:53 N 9 10.00 Fair CLR 79 55.9 97 79 45% 80 29.92 1013.0
14 21:53 N 13 10.00 Fair CLR 81 57 44% 81 29.91 1012.6
14 20:53 NW 10 10.00 Fair CLR 84 59 43% 84 29.89 1011.9
14 19:53 NW 14 10.00 Fair CLR 89.1 55.9 33% 87 29.87 1011.5
14 18:53 NW 16 10.00 Fair CLR 93.9 54 26% 92 29.87 1011.3
14 17:53 NW 14 10.00 Fair CLR 96.1 57 27% 95 29.87 1011.3
14 16:53 NW 14 10.00 Fair CLR 96.1 55.9 97 82 26% 94 29.88 1011.8
14 15:53 N 13 10.00 Fair CLR 96.1 54 24% 94 29.9 1012.4
14 14:53 NW 12 G 18 10.00 Fair CLR 93.9 57 29% 93 29.93 1013.3
14 13:53 NW 13 10.00 Fair CLR 93.9 53.1 25% 91 29.95 1013.9
14 12:53 NW 10 10.00 Fair CLR 90 54 29% 88 29.95 1014.2
14 11:53 NW 9 10.00 Fair CLR 88 54 31% 86 29.97 1014.8
14 10:53 NW 8 10.00 Fair CLR 82 55.9 82 71.1 41% 82 29.99 1015.4
14 09:53 W 10 10.00 Fair CLR 77 55.9 48% 79 29.99 1015.5
14 08:53 N 8 10.00 Fair CLR 73.9 55.9 54% 30 1015.6
14 07:53 NW 8 10.00 Fair CLR 72 57 59% 29.99 1015.3
14 06:53 N 10 10.00 Fair CLR 72 57 59% 29.96 1014.3
14 05:53 NW 8 10.00 Fair CLR 72 55.9 57% 29.94 1013.6
14 04:53 N 5 10.00 Fair CLR 75 52 80.1 73.9 45% 78 29.93 1013.3
14 03:53 NW 7 10.00 Fair CLR 75 51.1 43% 78 29.9 1012.2
14 02:53 Vrbl 3 10.00 A Few Clouds FEW100 77 48.9 37% 78 29.89 1011.9
14 01:53 N 9 10.00 Fair CLR 78.1 46 32% 78 29.87 1011.3
14 00:53 NW 7 10.00 Fair CLR 78.1 44.1 30% 78 29.87 1011.5
13 23:53 Vrbl 6 10.00 Fair CLR 80.1 44.1 28% 79 29.87 1011.3
13 22:53 N 9 10.00 Fair CLR 80.1 46.9 99 80.1 31% 79 29.87 1011.2
13 21:53 N 9 10.00 Fair CLR 82.9 55 38% 82 29.86 1011.0
13 20:53 N 7 10.00 Fair CLR 86 57 37% 85 29.85 1010.8
13 19:53 NW 13 10.00 Fair CLR 90 57 33% 89 29.84 1010.3
13 18:53 NW 14 10.00 Fair CLR 93 57.9 31% 92 29.84 1010.2
13 17:53 NW 14 10.00 Fair CLR 97 60.1 29% 97 29.81 1009.5
13 16:53 N 15 10.00 Fair CLR 98.1 55.9 100 90 24% 97 29.79 1008.7
13 15:53 N 8 10.00 Fair CLR 99 55 23% 97 29.81 1009.3
13 14:53 NW 13 10.00 Fair CLR 99 59 27% 99 29.8 1009.0
13 13:53 NW 8 10.00 Fair CLR 99 59 27% 99 29.82 1009.6
13 12:53 W 13 10.00 Fair CLR 98.1 52 21% 95 29.82 1009.8
13 11:53 NW 8 10.00 Fair CLR 93.9 54 26% 92 29.82 1009.6
13 10:53 Calm 10.00 Fair CLR 91 55 91 79 30% 89 29.83 1009.9
13 09:53 Vrbl 3 10.00 A Few Clouds FEW110 88 57.9 36% 87 29.84 1010.3
13 08:53 SW 6 10.00 Fair CLR 80.1 60.1 51% 81 29.85 1010.8
Date Time (pdt) Wind (mph) Vis. (mi.) Weather Sky Cond. Air Dwpt Max. Min. Relative Humidity Wind Chill (°F) Heat Index (°F) altimeter (in) sea level (mb) 1 hr 3 hr 6 hr
6 hour
Temperature (ºF) Pressure Precipitation (in)